Torna al catalogo

NOVASAR 1

AttivoScienzaSSO
NORAD 43619·PAYLOAD·🇬🇧 United Kingdom

Lanciato Sep 16, 2018 da Satish Dhawan Space Centre

Loading…

Prossimi Passaggi (prossime 24 ore)

TLE

AggiornatoSource: Space-Track

Epoca: Sep 14, 2026, 14:22 UTC

1 43619U 18071B   26257.59870469  .00001066  00000-0  99077-4 0  9999
2 43619  97.4919 126.1887 0002220  90.7205 269.4272 14.96329006436304

Traccia NOVASAR 1 in tempo reale con AllMySat

Download on the App Store